OpenBCM V1.13 (Linux)

Packet Radio Mailbox

DB0FHN

[JN59NK Nuernberg]

 Login: GUEST





  
LU9DCE > KEP      19.11.19 18:34l 245 Lines 12078 Bytes #999 (0) @ WW
BID : 1550_LU9DCE
Read: DF7EAV DJ6UX GUEST
Subj: TLE 19 11
Path: DB0FHN<DB0BLO<DB0ERF<DB0RES<IR2UBX<IW0QNL<JH4XSY<N3HYM<N7HPX<LU9DCE
Sent: 191119/1600Z 1550@LU9DCE.TOR.BA.ARG.SOAM LinBPQ6.0.19

            __    _  _  ___  ____   ___  ____    ____  ____  ____
           (  )  / )( \/ _ \(    \ / __)(  __)  (  _ \(  _ \/ ___)
           / (_/\) \/ (\__  )) D (( (__  ) _)    ) _ ( ) _ (\___ \
           \____/\____/(___/(____/ \___)(____)  (____/(____/(____/
               ESTACION DE PACKET RADIO - BUENOS AIRES (GF05OM)
                   BOLETINES INFORMATIVOS PROGRAMADOS (BIP)
                  SLACKWARE LINUX - HELLOCODELINUX@GMAIL.COM
+----------------------------------------------------------------------------+
OSCAR 7
1  7530U 74089B   19322.53676112 -.00000032  00000-0  79969-4 0  9991
2  7530 101.7678 288.7466 0012519  52.5251  57.2769 12.53640782 59677
OSCAR 11 (UoSAT 2)
1 14781U 84021B   19322.51439972  .00000078  00000-0  15637-4 0  9994
2 14781  97.6016 339.9268 0008717 168.1348 192.0074 14.83120904921418
OSCAR 19 (LUSAT)
1 20442U 90005G   19321.89172758 +.00000008 +00000-0 +19098-4 0  9998
2 20442 098.6652 263.7377 0012793 063.2141 297.0350 14.32938106558117
EYESAT A
1 22825U 93061C   19322.51647026  .00000001  00000-0  18265-4 0  9993
2 22825  98.9155 314.7326 0007375 275.1036  84.9304 14.30071349363798
ITAMSAT
1 22826U 93061D   19322.83225423 -.00000007  00000-0  15307-4 0  9993
2 22826  98.9095 315.0283 0007912 260.9520  99.0767 14.30405632364040
RADIO ROSTO
1 23439U 94085A   19322.86182329 -.00000032  00000-0  29106-3 0  9990
2 23439  64.8161 228.4262 0145504  83.2336 278.5120 11.27568700 25323
JAS 2
1 24278U 96046B   19322.83598446 -.00000035  00000-0  11397-5 0  9997
2 24278  98.5608  95.6447 0350036 202.8803 155.6410 13.53094879148516
TECHSAT 1B
1 25397U 98043D   19322.83153758  .00000003  00000-0  20528-4 0  9991
2 25397  98.7041 261.2102 0000967   9.2530 350.8666 14.23674456109660
ISS (ZARYA)
1 25544U 98067A   19323.18881913  .00002707  00000-0  55385-4 0  9993
2 25544  51.6439 312.7894 0006803 297.9040 149.7715 15.50010197199307
PCSAT
1 26931U 01043C   19323.17156296 -.00000024  00000-0  22609-4 0  9994
2 26931  67.0509 327.6241 0007440 265.4775  94.5476 14.30559030946921
SAUDISAT 1C
1 27607U 02058C   19322.37716049 -.00000018  00000-0  18312-4 0  9990
2 27607  64.5547 302.7745 0072251 226.6839 132.8226 14.75589349909564
CUTE-1
1 27844U 03031E   19322.53156427  .00000047  00000-0  41041-4 0  9997
2 27844  98.6844 328.4631 0009052 313.1950  46.8471 14.22205889850016
CUBESAT XI 4
1 27848U 03031J   19322.49699041  .00000030  00000-0  33383-4 0  9992
2 27848  98.6917 328.9590 0009130 326.2323  33.8272 14.21797389849851
MOZHAYETS 4
1 27939U 03042A   19323.12583694  .00000061  00000-0  19562-4 0  9999
2 27939  98.0632  96.1563 0011821 305.1120  54.8972 14.66818084863036
CUBESAT XI 5
1 28895U 05043F   19322.36472159  .00000139  00000-0  35476-4 0  9990
2 28895  97.9810 100.0688 0015910 226.6182 133.3697 14.63711526749811
CUTE-1.7+APD II
1 32785U 08021C   19321.82834309 +.00000214 +00000-0 +28625-4 0  9993
2 32785 097.5580 314.4357 0014442 115.6944 244.5767 14.88374788626246
DELFI C3
1 32789U 08021G   19322.85743132  .00001001  00000-0  70319-4 0  9996
2 32789  97.4471   7.7766 0011051 327.2254  32.8288 15.07263342630035
SEEDS
1 32791U 08021J   19322.99910645  .00000317  00000-0  37455-4 0  9992
2 32791  97.5323 321.6527 0014903  87.5257 272.7668 14.90912596626952
YUBELEINY
1 32953U 08025A   19323.04682823  .00000021  00000-0  75656-4 0  9994
2 32953  82.5072  49.3876 0020017 153.3403 206.8715 12.43092193521364
PRISM (HITOMI)
1 33493U 09002B   19321.82170689 +.00001126 +00000-0 +10372-3 0  9996
2 33493 098.1266 248.5660 0016248 043.8830 316.3678 14.96807564587895
KKS-1 (KISEKI)
1 33499U 09002H   19322.53235827  .00000103  00000-0  23225-4 0  9993
2 33499  98.3364 166.0364 0010386  81.1511 279.0873 14.75480045581765
SWISSCUBE
1 35932U 09051B   19321.71437403 +.00000133 +00000-0 +41010-4 0  9999
2 35932 098.5996 132.2775 0008539 063.4943 296.7128 14.56330108538867
BEESAT
1 35933U 09051C   19322.46403981  .00000109  00000-0  35490-4 0  9995
2 35933  98.6010 134.8692 0006844  73.8787 286.3163 14.56413715539120
ITUPSAT 1
1 35935U 09051E   19321.71644816 +.00000102 +00000-0 +34612-4 0  9996
2 35935 098.6119 134.3235 0009162 073.2762 286.9440 14.55567485538725
XIWANG-1 (HOPE-1)
1 36122U 09072B   19323.18905859 -.00000055  00000-0 -33669-4 0  9998
2 36122 100.0797 318.3922 0007808 356.3243   3.7826 13.16351937477077
TISAT 1
1 36799U 10035E   19321.87277591 +.00000352 +00000-0 +41548-4 0  9991
2 36799 098.1736 119.2690 0011238 310.7215 049.3026 14.91204452507246
JUGNU
1 37839U 11058B   19322.51633802  .00000292  00000-0  13812-4 0  9992
2 37839  19.9599 128.0177 0018912 211.8886 193.0313 14.12664292418892
SRMSAT
1 37841U 11058D   19322.86597799  .00000299  00000-0  19428-4 0  9993
2 37841  19.9703 185.8473 0011880  79.6723  17.5794 14.10643523418344
M-CUBED/EXP-1 PRIME
1 37855U 11061F   19321.85118000 +.00002049 +00000-0 +10910-3 0  9995
2 37855 101.7227 295.6115 0172575 345.7210 013.9158 15.05788762439202
HORYU 2
1 38340U 12025D   19322.40363410  .00000167  00000-0  32386-4 0  9996
2 38340  98.3120   5.4407 0011389   4.1252 356.0048 14.75775533403683
STRAND 1
1 39090U 13009E   19322.54676840  .00000019  00000-0  21800-4 0  9996
2 39090  98.4718 165.8377 0008872 188.1170 171.9873 14.35105512352315
SOMP
1 39134U 13015E   19322.89278767  .00001207  00000-0  63483-4 0  9999
2 39134  64.8633 243.9791 0037960 277.8613  81.8207 15.20508061363888
BEESAT 3
1 39135U 13015F   19322.89175094  .00000975  00000-0  57154-4 0  9998
2 39135  64.8670 264.4578 0040377 282.8893  76.7725 15.17737837363499
BEESAT 2
1 39136U 13015G   19322.85547076  .00001025  00000-0  60889-4 0  9994
2 39136  64.8687 268.8470 0030320 288.0363  71.7459 15.17152252363406
CUBEBUG 1
1 39153U 13018D   19323.24114898  .00000207  00000-0  33843-4 0  9993
2 39153  97.9820  60.5340 0018089  63.5031 296.8034 14.80626064354539
ZACUBE
1 39417U 13066B   19322.51866897  .00000193  00000-0  30708-4 0  9992
2 39417  97.5618 327.4277 0057485 252.4976 106.9950 14.81179370323669
TRITON 1
1 39427U 13066M   19322.49075245  .00000231  00000-0  44540-4 0  9991
2 39427  97.6967 290.5879 0114696  36.8567 324.0453 14.67906905320758
GOMX 1
1 39430U 13066Q   19323.21563362  .00000177  00000-0  40652-4 0  9997
2 39430  97.7656 269.8017 0151965 129.8371 231.6319 14.59309677318998
HUMSAT D
1 39433U 13066T   19323.10265400  .00000177  00000-0  22458-4 0  9994
2 39433  97.5357   4.1955 0031676 146.5567 213.7662 14.92303459325952
CUBEBUG 2
1 39440U 13066AA  19322.49883486  .00000214  00000-0  36911-4 0  9994
2 39440  97.6126 311.9938 0079081 309.2992  50.1224 14.75917837322515
FUNCUBE 1
1 39444U 13066AE  19322.50181015  .00000229  00000-0  34531-4 0  9991
2 39444  97.5584 329.4975 0056676 245.5513 113.9782 14.82011385322560
UWE-3
1 39446U 13066AG  19322.64732550  .00000185  00000-0  31358-4 0  9999
2 39446  97.5864 319.2936 0068535 281.2141  78.1373 14.78452068321860
SPROUT
1 39770U 14029E   19323.21377100  .00000785  00000-0  92691-4 0  9992
2 39770  97.8922  65.5778 0007991 307.0636  52.9846 14.87508294297655
UNISAT 6
1 40012U 14033C   19321.66738749 +.00000157 +00000-0 +30766-4 0  9993
2 40012 097.7343 181.5571 0057687 328.6947 031.0831 14.74033195291074
DUCHIFAT 1
1 40021U 14033M   19322.85740998  .00000345  00000-0  41018-4 0  9995
2 40021  97.9291 247.9806 0011458 265.6793  94.3115 14.90738897294362
QB50P1
1 40025U 14033R   19322.85232775  .00000283  00000-0  36092-4 0  9995
2 40025  97.9073 242.2804 0011037 277.2071  82.7891 14.89022062294114
CHUBUSAT 1
1 40300U 14070C   19322.77586678  .00000698  00000-0  33220-4 0  9997
2 40300  97.3132  32.9835 0018683 236.9372 271.8615 15.22253214279300
NUDT-PHONESAT
1 40900U 15049B   19322.85873806  .00001899  00000-0  82948-4 0  9996
2 40900  97.4363 330.7283 0013341  14.5944  69.1799 15.23285645230975
ZDPS 2A
1 40901U 15049C   19323.21356862  .00000772  00000-0  41317-4 0  9990
2 40901  97.4616 326.8510 0014454  34.0358  28.5350 15.17933920230520
ZDPS 2B
1 40902U 15049D   19323.20096426  .00001219  00000-0  63468-4 0  9995
2 40902  97.4580 324.2129 0014468  31.9821  98.8111 15.17823925230499
XW-2A
1 40903U 15049E   19323.17922751  .00001664  00000-0  40559-4 0  9991
2 40903  97.3191   6.6900 0012287 315.9821 128.6094 15.42328618233905
KAITUO 1A
1 40904U 15049F   19323.24669188  .00000610  00000-0  35634-4 0  9990
2 40904  97.4716 322.6765 0015793  40.1108  15.2460 15.15509300230252
OBJECT G
1 40905U 15049G   19323.23882006  .00000365  00000-0  23416-4 0  9998
2 40905  97.4772 320.0628 0016680  36.2058  18.8840 15.14393169230110
XW-2C
1 40906U 15049H   19323.21663286  .00000400  00000-0  24357-4 0  9999
2 40906  97.4723 322.8033 0015734  32.2313  29.0156 15.15825292230253
XW-2D
1 40907U 15049J   19323.23965367  .00000603  00000-0  34768-4 0  9999
2 40907  97.4704 322.5092 0015067  29.5146  26.0733 15.16028753230275
LILACSAT 2
1 40908U 15049K   19322.80990262  .00000380  00000-0  24553-4 0  9997
2 40908  97.4843 320.7316 0016986  37.7805  44.8838 15.13893080229972
XW-2F
1 40910U 15049M   19323.25124164  .00001050  00000-0  55581-4 0  9990
2 40910  97.4658 324.7604 0015321  21.8489  33.5378 15.17541212230301
XW-2B
1 40911U 15049N   19323.21444737  .00000491  00000-0  29038-4 0  9994
2 40911  97.4727 323.1599 0015004  30.2474  30.6758 15.15956371230169
KAITUO 1B
1 40912U 15049P   19322.91737819  .00001053  00000-0  52147-4 0  9999
2 40912  97.4503 328.3134 0015100   3.9429  59.2345 15.19882697230586
TIANWANG 1C (TW-1C)
1 40926U 15051B   19323.10592990  .00012426  00000-0  16098-3 0  9998
2 40926  97.1165   9.2197 0007922 148.3838 263.4007 15.58983001234039
